Coral Harbour, Nunavut

10:58 AM EST on February 13, 2016 (GMT -0500)
Coral Harbour

Weather History for CYZS - October, 2012

Change the Weather History Date:

Friday, October 26, 2012

  Actual Average Record
Temperature  
Mean Temperature 14 °F -  
Max Temperature 26 °F 11 °F 33 °F (2008)
Min Temperature 5 °F -4 °F -4 °F (2000)
Degree Days  
Heating Degree Days 50    
Moisture  
Dew Point 16 °F    
Average Humidity 91    
Maximum Humidity 100    
Minimum Humidity 83    
Precipitation  
Precipitation 0.20 in 0.03 in - ()
Sea Level Pressure  
Sea Level Pressure 29.80 in    
Wind  
Wind Speed 10 mph ()    
Max Wind Speed 38 mph    
Max Gust Speed 46 mph    
Visibility 5.4 miles    
Events Fog , Snow    
Averages and records for this station are not official NWS values.
T = Trace of Precipitation, MM = Missing Value Source: Averaged Metar Reports

Daily Weather History Graph

Daily Weather History Graph

Search for Another Location

Airport or City:

Trip Planner

Search our weather history database for the weather conditions in past years. The results will help you decide how hot, cold, wet, or windy it might be!

Date:

Astronomy

Oct. 26, 2012 Rise Set
Actual Time 8:59 AM EDT 5:33 PM EDT
Civil Twilight 8:07 AM EDT 6:25 PM EDT
Nautical Twilight 7:11 AM EDT 7:21 PM EDT
Astronomical Twilight 6:16 AM EDT 8:16 PM EDT
Moon 4:32 PM EDT (10/26) 5:01 AM EDT (10/26)
Length of Visible Light 10h 17m
Length of Day
8h 34m
Waxing Gibbous, 91% of the Moon is Illuminated
Oct 26
Waxing Gibbous
Oct 29
Full
Nov 6
Last Quarter
Nov 13
New
Nov 20
First Quarter

Hourly Weather History & Observations

Time (EDT) Temp. Windchill Dew Point Humidity Pressure Visibility Wind Dir Wind Speed Gust Speed Precip Events Conditions
12:00 AM 8.6 °F -1.3 °F 5.0 °F 85% 30.15 in 15.0 mi NE 5.8 mph - N/A   Scattered Clouds
1:00 AM 6.8 °F -2.0 °F 3.2 °F 85% 30.15 in 15.0 mi NE 4.6 mph - N/A   Scattered Clouds
1:13 AM - - - N/A% - 15.0 mi Calm Calm - N/A   Unknown
2:00 AM 10 °F - 7 °F 83% 30.14 in 3 mi Calm Calm - - Snow Light Snow
2:00 AM 10.4 °F - 6.8 °F 85% 30.14 in 3.0 mi Calm Calm - N/A Snow Light Snow
2:24 AM - - - N/A% - 0.2 mi Calm Calm - N/A Fog Light Freezing Fog
3:00 AM 10.4 °F 2.2 °F 8.6 °F 92% 30.14 in 0.8 mi NE 4.6 mph - N/A Snow Light Snow
3:26 AM - - - N/A% - 8.0 mi NE 4.6 mph - N/A   Unknown
4:00 AM 8.6 °F -2.6 °F 6.8 °F 92% 30.11 in 15.0 mi North 6.9 mph - N/A Snow Light Snow
4:34 AM - - - N/A% - 15.0 mi North 4.6 mph - N/A   Partly Cloudy
4:44 AM - - - N/A% - 10.0 mi North 3.5 mph - N/A   Unknown
5:00 AM 6.8 °F - 5.0 °F 92% 30.12 in 8.0 mi Calm Calm - N/A Snow Light Snow
5:54 AM - - - N/A% - 0.8 mi NNE 4.6 mph - N/A   Mist
6:00 AM 10.4 °F 2.2 °F 8.6 °F 92% 30.09 in 0.8 mi NNE 4.6 mph - N/A   Mist
7:00 AM 12.2 °F 6.1 °F 10.4 °F 92% 30.07 in 1.0 mi NNE 3.5 mph - N/A   Mist
8:00 AM 13 °F - 11 °F 90% 30.05 in 1 mi North 3.5 mph - -   Mist
8:00 AM 14.0 °F 8.2 °F 12.2 °F 93% 30.05 in 1.2 mi North 3.5 mph - N/A   Mist
8:17 AM - - - N/A% - 3.0 mi Calm Calm - N/A   Overcast
9:00 AM 17.6 °F 5.7 °F 15.8 °F 93% 30.01 in 12.0 mi NE 10.4 mph - N/A   Overcast
10:00 AM 17.6 °F 6.4 °F 17.6 °F 100% 29.99 in 15.0 mi ENE 9.2 mph - N/A   Overcast
10:33 AM - - - N/A% - 15.0 mi ENE 15.0 mph - N/A   Unknown
11:00 AM 19.4 °F 6.0 °F 17.6 °F 93% 29.95 in 15.0 mi NE 13.8 mph - N/A Snow Light Snow
12:00 PM 21.2 °F 6.0 °F 19.4 °F 93% 29.91 in 15.0 mi ENE 19.6 mph - N/A Snow Light Snow
12:39 PM - - - N/A% - 12.0 mi NE 20.7 mph 26.5 mph N/A   Light Freezing Drizzle
1:00 PM 21.2 °F 4.9 °F 19.4 °F 93% 29.81 in 12.0 mi NE 23.0 mph 28.8 mph N/A   Light Freezing Drizzle
1:17 PM - - - N/A% - 2.0 mi ENE 18.4 mph 25.3 mph N/A   Unknown
2:00 PM 22 °F - 20 °F 89% 29.75 in 2 mi ENE 17.3 mph - - Snow Light Snow
2:10 PM - - - N/A% - 1.0 mi ENE 19.6 mph 26.5 mph N/A   Unknown
3:00 PM 23.0 °F 7.2 °F 21.2 °F 93% 29.66 in 1.0 mi ENE 23.0 mph 31.1 mph N/A Snow Light Snow
3:24 PM - - - N/A% - 0.5 mi ENE 25.3 mph 33.4 mph N/A   Unknown
4:00 PM 23.0 °F 6.6 °F 21.2 °F 93% 29.62 in 0.5 mi ENE 25.3 mph 34.5 mph N/A Snow Light Snow
5:00 PM 24.8 °F 7.3 °F 23.0 °F 93% 29.52 in 0.2 mi ENE 32.2 mph 41.4 mph N/A Snow Heavy Snow
5:17 PM - - - N/A% - 0.8 mi NE 28.8 mph 38.0 mph N/A   Unknown
6:00 PM 24.8 °F 8.1 °F 21.2 °F 86% 29.51 in 0.5 mi NE 28.8 mph 36.8 mph N/A Snow Light Snow
7:00 PM 24.8 °F 8.1 °F 23.0 °F 93% 29.42 in 0.2 mi NE 28.8 mph 34.5 mph N/A Snow Heavy Snow
8:00 PM 25 °F - 23 °F 91% 29.35 in 0 mi NE 29.9 mph - - Snow Light Snow
8:00 PM 24.8 °F 7.9 °F 23.0 °F 93% 29.35 in 0.2 mi NE 29.9 mph 38.0 mph N/A Snow Heavy Snow
9:00 PM 24.8 °F 6.2 °F 23.0 °F 93% 29.28 in 0.1 mi NE 38.0 mph 46.0 mph N/A Snow Heavy Snow
10:00 PM 24.8 °F 6.8 °F 23.0 °F 93% 29.20 in 0.1 mi NE 34.5 mph 43.7 mph N/A Snow Heavy Snow
11:00 PM 26.6 °F 9.3 °F 24.8 °F 93% 29.15 in 0.1 mi ENE 34.5 mph 42.6 mph N/A Snow Heavy Snow
11:44 PM - - - N/A% - 0.8 mi ENE 28.8 mph 38.0 mph N/A   Unknown